Location: San Antonio
(29.4240°N, 98.4930°W)
Time: 10:38:44
(UTC-06:00)

Transit 4A - Pass Details

Date: 16 December 2025
Orbit: 867 x 974 km, 66.8° (Epoch: 17 January)

Event Time Altitude Azimuth Distance (km) Brightness Sun altitude
Exits shadow 03:38:00 12° 117° (ESE) 2,496 10.6 -47.7°
Drops below altitude 10° 03:38:33 10° 120° (ESE) 2,667 10.7 -47.5°
Sets 03:41:25 0° 131° (SE) 3,624 11.5 -46.9°
